"Sample Date","Sample Time","Sample Value","Units","Flow Rate","Sample Interval","Number Channels","Micron Size 0","Counts/Channel 0","Micron Size 1","Counts/Channel 1","Micron Size 2","Counts/Channel 2","Micron Size 3","Counts/Channel 3","Micron Size 4","Counts/Channel 4","Micron Size 5","Counts/Channel 5","Micron Size 6","Counts/Channel 6","Micron Size 7","Counts/Channel 7","Micron Size 8","Counts/Channel 8","Micron Size 9","Counts/Channel 9","Micron Size 10","Counts/Channel 10","Micron Size 11","Counts/Channel 11","Micron Size 12","Counts/Channel 12","Micron Size 13","Counts/Channel 13","Micron Size 14","Counts/Channel 14","Micron Size 15","Counts/Channel 15","Micron Size 16","Counts/Channel 16","Micron Size 17","Counts/Channel 17","Micron Size 18","Counts/Channel 18","Micron Size 19","Counts/Channel 19","Micron Size 20","Counts/Channel 20","Micron Size 21","Counts/Channel 21","Micron Size 22","Counts/Channel 22","Micron Size 23","Counts/Channel 23","Micron Size 24","Counts/Channel 24","Micron Size 25","Counts/Channel 25","Micron Size 26","Counts/Channel 26","Micron Size 27","Counts/Channel 27","Micron Size 28","Counts/Channel 28","Micron Size 29","Counts/Channel 29","Micron Size 30","Counts/Channel 30","Micron Size 31","Counts/Channel 31"
"04/02/08","23:00:01",341600.000,"cc",28366.119,6.00,6,0.100,300976.000,0.200,35898.000,0.300,2694.000,0.500,1537.000,1.000,495.000,5.000,0
"04/02/08","23:00:07",260194.000,"cc",28356.160,6.00,6,0.100,230934.000,0.200,24336.000,0.300,2623.000,0.500,1736.000,1.000,565.000,5.000,0
"04/02/08","23:00:13",359745.000,"cc",28323.354,6.00,6,0.100,315246.000,0.200,39469.000,0.300,3009.000,0.500,1540.000,1.000,481.000,5.000,0
"04/02/08","23:00:19",327934.000,"cc",28326.453,6.00,6,0.100,288074.000,0.200,35560.000,0.300,2557.000,0.500,1285.000,1.000,458.000,5.000,0
"04/02/08","23:00:25",171013.000,"cc",28280.527,6.00,6,0.100,92601.000,0.200,72379.000,0.300,4163.000,0.500,1409.000,1.000,461.000,5.000,0
"04/02/08","23:00:31",218977.000,"cc",28291.617,6.00,6,0.100,162554.000,0.200,51270.000,0.300,3297.000,0.500,1395.000,1.000,461.000,5.000,0
"04/02/08","23:00:37",320009.000,"cc",28289.754,6.00,6,0.100,268848.000,0.200,46295.000,0.300,3127.000,0.500,1333.000,1.000,406.000,5.000,0
"04/02/08","23:00:43",303195.000,"cc",28312.818,6.00,6,0.100,255404.000,0.200,43059.000,0.300,2952.000,0.500,1361.000,1.000,419.000,5.000,0
"04/02/08","23:00:49",346207.000,"cc",28320.865,6.00,6,0.100,304226.000,0.200,37720.000,0.300,2574.000,0.500,1255.000,1.000,432.000,5.000,0
"04/02/08","23:00:55",313491.000,"cc",28349.795,6.00,6,0.100,277094.000,0.200,32475.000,0.300,2304.000,0.500,1203.000,1.000,415.000,5.000,0
"04/02/08","23:01:01",287228.000,"cc",28328.102,6.00,6,0.100,254940.000,0.200,28460.000,0.300,2227.000,0.500,1224.000,1.000,377.000,5.000,0
"04/02/08","23:01:07",320115.000,"cc",28321.850,6.00,6,0.100,271603.000,0.200,43823.000,0.300,2959.000,0.500,1311.000,1.000,419.000,5.000,0
"04/02/08","23:01:13",241511.000,"cc",28301.764,6.00,6,0.100,215944.000,0.200,22089.000,0.300,1873.000,0.500,1208.000,1.000,397.000,5.000,0
"04/02/08","23:01:19",225512.000,"cc",28328.492,6.00,6,0.100,202760.000,0.200,19947.000,0.300,1515.000,0.500,988.000,1.000,302.000,5.000,0
"04/02/08","23:01:25",265756.000,"cc",28330.770,6.00,6,0.100,235965.000,0.200,26267.000,0.300,2021.000,0.500,1124.000,1.000,379.000,5.000,0
"04/02/08","23:01:31",192712.000,"cc",28312.764,6.00,6,0.100,141620.000,0.200,46563.000,0.300,2939.000,0.500,1210.000,1.000,380.000,5.000,0
"04/02/08","23:01:37",250238.000,"cc",28303.805,6.00,6,0.100,210193.000,0.200,35488.000,0.300,2750.000,0.500,1358.000,1.000,449.000,5.000,0
"04/02/08","23:01:43",260332.000,"cc",28217.006,6.00,6,0.100,206062.000,0.200,49519.000,0.300,3225.000,0.500,1146.000,1.000,380.000,5.000,0
"04/02/08","23:01:49",208664.000,"cc",28336.895,6.00,6,0.100,187308.000,0.200,18547.000,0.300,1621.000,0.500,898.000,1.000,290.000,5.000,0
"04/02/08","23:01:55",283090.000,"cc",28330.391,6.00,6,0.100,252268.000,0.200,27294.000,0.300,2094.000,0.500,1064.000,1.000,370.000,5.000,0
"04/02/08","23:02:01",263753.000,"cc",28281.127,6.00,6,0.100,235291.000,0.200,24813.000,0.300,2109.000,0.500,1160.000,1.000,380.000,5.000,0
"04/02/08","23:02:07",242358.000,"cc",28251.051,6.00,6,0.100,217053.000,0.200,22102.000,0.300,1830.000,0.500,1042.000,1.000,331.000,5.000,0
"04/02/08","23:02:13",301752.000,"cc",28319.160,6.00,6,0.100,267725.000,0.200,29980.000,0.300,2401.000,0.500,1262.000,1.000,384.000,5.000,0
"04/02/08","23:02:19",312691.000,"cc",28342.822,6.00,6,0.100,276982.000,0.200,31580.000,0.300,2415.000,0.500,1308.000,1.000,406.000,5.000,0
"04/02/08","23:02:25",265578.000,"cc",28297.588,6.00,6,0.100,224987.000,0.200,35687.000,0.300,2982.000,0.500,1476.000,1.000,446.000,5.000,0
"04/02/08","23:02:31",329300.000,"cc",28342.027,6.00,6,0.100,277589.000,0.200,46428.000,0.300,3317.000,0.500,1491.000,1.000,475.000,5.000,0
"04/02/08","23:02:37",294109.000,"cc",28371.902,6.00,6,0.100,236719.000,0.200,52202.000,0.300,3445.000,0.500,1369.000,1.000,374.000,5.000,0
"04/02/08","23:02:43",222822.000,"cc",28300.850,6.00,6,0.100,164456.000,0.200,52780.000,0.300,3603.000,0.500,1505.000,1.000,478.000,5.000,0
"04/02/08","23:02:49",382874.000,"cc",28323.779,6.00,6,0.100,333295.000,0.200,44025.000,0.300,3382.000,0.500,1647.000,1.000,525.000,5.000,0
"04/02/08","23:02:55",265978.000,"cc",28346.244,6.00,6,0.100,222552.000,0.200,38444.000,0.300,2984.000,0.500,1461.000,1.000,537.000,5.000,0
"04/02/08","23:03:01",342761.000,"cc",28296.947,6.00,6,0.100,300300.000,0.200,37142.000,0.300,3178.000,0.500,1620.000,1.000,521.000,5.000,0
"04/02/08","23:03:07",259679.000,"cc",28285.625,6.00,6,0.100,227249.000,0.200,27402.000,0.300,2833.000,0.500,1697.000,1.000,498.000,5.000,0
"04/02/08","23:03:13",249715.000,"cc",28325.410,6.00,6,0.100,218691.000,0.200,24765.000,0.300,3359.000,0.500,2202.000,1.000,698.000,5.000,0
"04/02/08","23:03:19",329600.000,"cc",28282.031,6.00,6,0.100,289360.000,0.200,34855.000,0.300,3113.000,0.500,1688.000,1.000,584.000,5.000,0
"04/02/08","23:03:25",290343.000,"cc",28316.795,6.00,6,0.100,246054.000,0.200,39393.000,0.300,3029.000,0.500,1439.000,1.000,428.000,5.000,0
"04/02/08","23:03:31",271177.000,"cc",28306.246,6.00,6,0.100,227160.000,0.200,39748.000,0.300,2698.000,0.500,1179.000,1.000,392.000,5.000,0
"04/02/08","23:03:37",270644.000,"cc",28286.514,6.00,6,0.100,240718.000,0.200,26536.000,0.300,1973.000,0.500,1087.000,1.000,330.000,5.000,0
"04/02/08","23:03:43",380309.000,"cc",28315.508,6.00,6,0.100,333357.000,0.200,42557.000,0.300,2805.000,0.500,1188.000,1.000,402.000,5.000,0
"04/02/08","23:03:49",329112.000,"cc",28312.758,6.00,6,0.100,290689.000,0.200,34619.000,0.300,2327.000,0.500,1107.000,1.000,370.000,5.000,0
"04/02/08","23:03:55",336164.000,"cc",28366.434,6.00,6,0.100,284012.000,0.200,47179.000,0.300,3119.000,0.500,1427.000,1.000,427.000,5.000,0
"04/02/08","23:04:01",367228.000,"cc",28346.606,6.00,6,0.100,320364.000,0.200,41869.000,0.300,2998.000,0.500,1530.000,1.000,467.000,5.000,0
"04/02/08","23:04:07",292099.000,"cc",28284.029,6.00,6,0.100,245764.000,0.200,41372.000,0.300,3028.000,0.500,1444.000,1.000,491.000,5.000,0
"04/02/08","23:04:13",299004.000,"cc",28269.135,6.00,6,0.100,250975.000,0.200,43542.000,0.300,2915.000,0.500,1187.000,1.000,385.000,5.000,0
"04/02/08","23:04:19",330540.000,"cc",28364.248,6.00,6,0.100,279130.000,0.200,46716.000,0.300,3087.000,0.500,1217.000,1.000,390.000,5.000,0
"04/02/08","23:04:25",280462.000,"cc",28314.932,6.00,6,0.100,224730.000,0.200,50481.000,0.300,3377.000,0.500,1419.000,1.000,455.000,5.000,0
"04/02/08","23:04:31",388537.000,"cc",28350.004,6.00,6,0.100,337043.000,0.200,45241.000,0.300,3780.000,0.500,1890.000,1.000,583.000,5.000,0
"04/02/08","23:04:37",304919.000,"cc",28355.639,6.00,6,0.100,266985.000,0.200,32498.000,0.300,3010.000,0.500,1818.000,1.000,608.000,5.000,0
"04/02/08","23:04:43",300882.000,"cc",28294.014,6.00,6,0.100,252022.000,0.200,43662.000,0.300,3235.000,0.500,1483.000,1.000,480.000,5.000,0
"04/02/08","23:04:49",341157.000,"cc",28310.213,6.00,6,0.100,298601.000,0.200,37801.000,0.300,2859.000,0.500,1432.000,1.000,464.000,5.000,0
"04/02/08","23:04:55",292643.000,"cc",28327.080,6.00,6,0.100,255872.000,0.200,31246.000,0.300,3155.000,0.500,1776.000,1.000,594.000,5.000,0
"04/02/08","23:05:01",219804.000,"cc",28304.531,6.00,6,0.100,193212.000,0.200,21425.000,0.300,2744.000,0.500,1820.000,1.000,603.000,5.000,0
"04/02/08","23:05:07",239101.000,"cc",28320.957,6.00,6,0.100,211182.000,0.200,23353.000,0.300,2555.000,0.500,1496.000,1.000,515.000,5.000,0
"04/02/08","23:05:13",292331.000,"cc",28347.055,6.00,6,0.100,258098.000,0.200,30337.000,0.300,2270.000,0.500,1213.000,1.000,413.000,5.000,0
"04/02/08","23:05:19",294406.000,"cc",28275.678,6.00,6,0.100,260403.000,0.200,29987.000,0.300,2379.000,0.500,1247.000,1.000,390.000,5.000,0
"04/02/08","23:05:25",242890.000,"cc",28303.717,6.00,6,0.100,215959.000,0.200,23466.000,0.300,2007.000,0.500,1110.000,1.000,348.000,5.000,0
"04/02/08","23:05:31",224441.000,"cc",28315.436,6.00,6,0.100,198881.000,0.200,21965.000,0.300,2027.000,0.500,1190.000,1.000,378.000,5.000,0
"04/02/08","23:05:37",215602.000,"cc",28308.172,6.00,6,0.100,191795.000,0.200,20127.000,0.300,2049.000,0.500,1216.000,1.000,415.000,5.000,0
"04/02/08","23:05:43",241118.000,"cc",28323.201,6.00,6,0.100,214261.000,0.200,22942.000,0.300,2224.000,0.500,1259.000,1.000,432.000,5.000,0
"04/02/08","23:05:49",297675.000,"cc",28266.318,6.00,6,0.100,262274.000,0.200,31018.000,0.300,2514.000,0.500,1409.000,1.000,460.000,5.000,0
"04/02/08","23:05:55",244177.000,"cc",28327.982,6.00,6,0.100,216532.000,0.200,23481.000,0.300,2305.000,0.500,1389.000,1.000,470.000,5.000,0
"04/02/08","23:06:01",258668.000,"cc",28318.217,6.00,6,0.100,217898.000,0.200,35858.000,0.300,3022.000,0.500,1448.000,1.000,442.000,5.000,0
"04/02/08","23:06:07",218910.000,"cc",28293.861,6.00,6,0.100,194715.000,0.200,20464.000,0.300,2135.000,0.500,1199.000,1.000,397.000,5.000,0
"04/02/08","23:06:13",316872.000,"cc",28348.297,6.00,6,0.100,279025.000,0.200,33486.000,0.300,2653.000,0.500,1312.000,1.000,396.000,5.000,0
"04/02/08","23:06:19",210794.000,"cc",28340.986,6.00,6,0.100,186996.000,0.200,20128.000,0.300,2069.000,0.500,1224.000,1.000,377.000,5.000,0
"04/02/08","23:06:25",300907.000,"cc",28293.660,6.00,6,0.100,263750.000,0.200,31900.000,0.300,3091.000,0.500,1650.000,1.000,516.000,5.000,0
"04/02/08","23:06:31",173398.000,"cc",28292.203,6.00,6,0.100,154514.000,0.200,15470.000,0.300,1803.000,0.500,1232.000,1.000,379.000,5.000,0
"04/02/08","23:06:37",241012.000,"cc",28322.576,6.00,6,0.100,214457.000,0.200,22683.000,0.300,2121.000,0.500,1323.000,1.000,428.000,5.000,0
"04/02/08","23:06:43",206628.000,"cc",28346.766,6.00,6,0.100,184070.000,0.200,18953.000,0.300,1936.000,0.500,1244.000,1.000,425.000,5.000,0
"04/02/08","23:06:49",290209.000,"cc",28308.354,6.00,6,0.100,257388.000,0.200,28890.000,0.300,2265.000,0.500,1234.000,1.000,432.000,5.000,0
"04/02/08","23:06:55",251477.000,"cc",28305.719,6.00,6,0.100,224219.000,0.200,23814.000,0.300,1883.000,0.500,1169.000,1.000,392.000,5.000,0
"04/02/08","23:07:01",260906.000,"cc",28288.623,6.00,6,0.100,231522.000,0.200,25363.000,0.300,2188.000,0.500,1372.000,1.000,461.000,5.000,0
"04/02/08","23:07:07",265556.000,"cc",28331.596,6.00,6,0.100,235916.000,0.200,25516.000,0.300,2266.000,0.500,1412.000,1.000,446.000,5.000,0
"04/02/08","23:07:13",141658.000,"cc",28350.707,6.00,6,0.100,127098.000,0.200,11299.000,0.300,1587.000,0.500,1244.000,1.000,430.000,5.000,0
"04/02/08","23:07:19",118512.000,"cc",28327.781,6.00,6,0.100,105994.000,0.200,9198.000,0.300,1582.000,0.500,1316.000,1.000,422.000,5.000,0
"04/02/08","23:07:25",117454.000,"cc",28288.139,6.00,6,0.100,105204.000,0.200,9141.000,0.300,1439.000,0.500,1244.000,1.000,426.000,5.000,0
"04/02/08","23:07:31",92123.000,"cc",28248.607,6.00,6,0.100,81600.000,0.200,6914.000,0.300,1645.000,0.500,1477.000,1.000,487.000,5.000,0
"04/02/08","23:07:37",47187.000,"cc",28285.809,6.00,6,0.100,42242.000,0.200,2757.000,0.300,883.000,0.500,1002.000,1.000,303.000,5.000,0
"04/02/08","23:07:43",52403.000,"cc",28348.004,6.00,6,0.100,45977.000,0.200,3549.000,0.300,1295.000,0.500,1257.000,1.000,325.000,5.000,0
"04/02/08","23:07:49",54338.000,"cc",28369.889,6.00,6,0.100,48103.000,0.200,3579.000,0.300,1201.000,0.500,1087.000,1.000,368.000,5.000,0
"04/02/08","23:07:55",57884.000,"cc",28308.582,6.00,6,0.100,50525.000,0.200,4179.000,0.300,1444.000,0.500,1310.000,1.000,426.000,5.000,0
"04/02/08","23:08:01",64392.000,"cc",28294.647,6.00,6,0.100,56945.000,0.200,4414.000,0.300,1315.000,0.500,1308.000,1.000,410.000,5.000,0
"04/02/08","23:08:07",80297.000,"cc",28326.279,6.00,6,0.100,71387.000,0.200,5987.000,0.300,1373.000,0.500,1164.000,1.000,386.000,5.000,0
"04/02/08","23:08:13",49636.000,"cc",28339.990,6.00,6,0.100,44230.000,0.200,3043.000,0.300,989.000,0.500,1017.000,1.000,357.000,5.000,0
"04/02/08","23:08:19",41581.000,"cc",28214.598,6.00,6,0.100,36556.000,0.200,2563.000,0.300,1061.000,0.500,1057.000,1.000,344.000,5.000,0
"04/02/08","23:08:25",53656.000,"cc",28407.772,6.00,6,0.100,45923.000,0.200,3994.000,0.300,1715.000,0.500,1563.000,1.000,461.000,5.000,0
"04/02/08","23:08:31",54531.000,"cc",28245.449,6.00,6,0.100,45927.000,0.200,4342.000,0.300,1930.000,0.500,1667.000,1.000,665.000,5.000,0
"04/02/08","23:08:37",70249.000,"cc",28337.299,6.00,6,0.100,62026.000,0.200,5063.000,0.300,1438.000,0.500,1288.000,1.000,434.000,5.000,0
"04/02/08","23:08:43",104375.000,"cc",28325.350,6.00,6,0.100,92153.000,0.200,8342.000,0.300,1793.000,0.500,1560.000,1.000,527.000,5.000,0
"04/02/08","23:08:49",71651.000,"cc",28343.731,6.00,6,0.100,63235.000,0.200,5126.000,0.300,1445.000,0.500,1410.000,1.000,435.000,5.000,0
"04/02/08","23:08:55",88400.000,"cc",28265.703,6.00,6,0.100,78313.000,0.200,6806.000,0.300,1502.000,0.500,1298.000,1.000,481.000,5.000,0
"04/02/08","23:09:01",145639.000,"cc",28308.973,6.00,6,0.100,129201.000,0.200,12518.000,0.300,1956.000,0.500,1438.000,1.000,526.000,5.000,0
"04/02/08","23:09:07",178661.000,"cc",28300.434,6.00,6,0.100,158367.000,0.200,16706.000,0.300,1840.000,0.500,1324.000,1.000,424.000,5.000,0
"04/02/08","23:09:13",161865.000,"cc",28320.356,6.00,6,0.100,143545.000,0.200,14833.000,0.300,1806.000,0.500,1314.000,1.000,367.000,5.000,0
"04/02/08","23:09:19",172789.000,"cc",28337.645,6.00,6,0.100,153653.000,0.200,15472.000,0.300,1837.000,0.500,1359.000,1.000,468.000,5.000,0
"04/02/08","23:09:25",184756.000,"cc",28306.793,6.00,6,0.100,163727.000,0.200,17358.000,0.300,1942.000,0.500,1304.000,1.000,425.000,5.000,0
"04/02/08","23:09:31",169566.000,"cc",28304.545,6.00,6,0.100,150275.000,0.200,15488.000,0.300,1899.000,0.500,1403.000,1.000,501.000,5.000,0
"04/02/08","23:09:37",122403.000,"cc",28314.145,6.00,6,0.100,108579.000,0.200,10109.000,0.300,1778.000,0.500,1488.000,1.000,449.000,5.000,0
"04/02/08","23:09:43",154575.000,"cc",28382.584,6.00,6,0.100,135400.000,0.200,14398.000,0.300,2349.000,0.500,1826.000,1.000,602.000,5.000,0
"04/02/08","23:09:49",163331.000,"cc",28333.150,6.00,6,0.100,143702.000,0.200,14738.000,0.300,2429.000,0.500,1845.000,1.000,617.000,5.000,0
"04/02/08","23:09:55",109558.000,"cc",28273.213,6.00,6,0.100,98232.000,0.200,8413.000,0.300,1341.000,0.500,1162.000,1.000,410.000,5.000,0
"04/02/08","23:10:01",188151.000,"cc",28333.188,6.00,6,0.100,167852.000,0.200,16671.000,0.300,1841.000,0.500,1326.000,1.000,461.000,5.000,0
"04/02/08","23:10:07",128312.000,"cc",28308.764,6.00,6,0.100,105433.000,0.200,19421.000,0.300,1860.000,0.500,1199.000,1.000,399.000,5.000,0
"04/02/08","23:10:13",205742.000,"cc",28310.484,6.00,6,0.100,183227.000,0.200,18945.000,0.300,1892.000,0.500,1268.000,1.000,410.000,5.000,0
"04/02/08","23:10:19",193055.000,"cc",28349.752,6.00,6,0.100,160208.000,0.200,27572.000,0.300,2960.000,0.500,1740.000,1.000,575.000,5.000,0
"04/02/08","23:10:25",266154.000,"cc",28315.775,6.00,6,0.100,233847.000,0.200,27378.000,0.300,2685.000,0.500,1685.000,1.000,559.000,5.000,0
"04/02/08","23:10:31",144498.000,"cc",28297.680,6.00,6,0.100,129092.000,0.200,12216.000,0.300,1576.000,0.500,1196.000,1.000,418.000,5.000,0
"04/02/08","23:10:37",172690.000,"cc",28289.391,6.00,6,0.100,154143.000,0.200,14975.000,0.300,1793.000,0.500,1349.000,1.000,430.000,5.000,0
"04/02/08","23:10:43",141602.000,"cc",28315.650,6.00,6,0.100,125759.000,0.200,11933.000,0.300,1854.000,0.500,1547.000,1.000,509.000,5.000,0
"04/02/08","23:10:49",138135.000,"cc",28338.945,6.00,6,0.100,123225.000,0.200,11235.000,0.300,1744.000,0.500,1437.000,1.000,494.000,5.000,0
"04/02/08","23:10:55",141072.000,"cc",28306.752,6.00,6,0.100,126280.000,0.200,11835.000,0.300,1441.000,0.500,1147.000,1.000,369.000,5.000,0
"04/02/08","23:11:01",150299.000,"cc",28341.481,6.00,6,0.100,135168.000,0.200,12129.000,0.300,1485.000,0.500,1120.000,1.000,397.000,5.000,0
"04/02/08","23:11:07",192125.000,"cc",28344.258,6.00,6,0.100,171075.000,0.200,17015.000,0.300,2008.000,0.500,1509.000,1.000,518.000,5.000,0
"04/02/08","23:11:13",157320.000,"cc",28308.279,6.00,6,0.100,139407.000,0.200,13702.000,0.300,2087.000,0.500,1589.000,1.000,535.000,5.000,0
"04/02/08","23:11:19",209385.000,"cc",28307.469,6.00,6,0.100,187706.000,0.200,18684.000,0.300,1600.000,0.500,1024.000,1.000,371.000,5.000,0
"04/02/08","23:11:25",241759.000,"cc",28309.750,6.00,6,0.100,216415.000,0.200,22160.000,0.300,1787.000,0.500,1020.000,1.000,377.000,5.000,0
"04/02/08","23:11:31",293568.000,"cc",28323.773,6.00,6,0.100,259854.000,0.200,29877.000,0.300,2266.000,0.500,1204.000,1.000,367.000,5.000,0
"04/02/08","23:11:37",301595.000,"cc",28284.762,6.00,6,0.100,254241.000,0.200,42937.000,0.300,2804.000,0.500,1233.000,1.000,380.000,5.000,0
"04/02/08","23:11:43",284302.000,"cc",28276.336,6.00,6,0.100,252973.000,0.200,27672.000,0.300,2059.000,0.500,1233.000,1.000,365.000,5.000,0
"04/02/08","23:11:49",194897.000,"cc",28358.348,6.00,6,0.100,173644.000,0.200,17584.000,0.300,1888.000,0.500,1325.000,1.000,456.000,5.000,0
"04/02/08","23:11:55",198161.000,"cc",28304.984,6.00,6,0.100,176657.000,0.200,17774.000,0.300,1875.000,0.500,1355.000,1.000,500.000,5.000,0
"04/02/08","23:12:01",212968.000,"cc",28323.035,6.00,6,0.100,190332.000,0.200,19295.000,0.300,1809.000,0.500,1157.000,1.000,375.000,5.000,0
"04/02/08","23:12:07",140437.000,"cc",28335.914,6.00,6,0.100,126027.000,0.200,11206.000,0.300,1575.000,0.500,1208.000,1.000,421.000,5.000,0
"04/02/08","23:12:13",180126.000,"cc",28258.477,6.00,6,0.100,160092.000,0.200,15900.000,0.300,2064.000,0.500,1555.000,1.000,515.000,5.000,0
"04/02/08","23:12:19",142427.000,"cc",28316.361,6.00,6,0.100,126580.000,0.200,11966.000,0.300,1916.000,0.500,1463.000,1.000,502.000,5.000,0
"04/02/08","23:12:25",126287.000,"cc",28373.076,6.00,6,0.100,113214.000,0.200,9922.000,0.300,1463.000,0.500,1259.000,1.000,429.000,5.000,0
"04/02/08","23:12:31",84082.000,"cc",28318.357,6.00,6,0.100,74961.000,0.200,6196.000,0.300,1336.000,0.500,1179.000,1.000,410.000,5.000,0
"04/02/08","23:12:37",64337.000,"cc",28297.119,6.00,6,0.100,57365.000,0.200,4256.000,0.300,1178.000,0.500,1125.000,1.000,413.000,5.000,0
"04/02/08","23:12:43",41197.000,"cc",28307.451,6.00,6,0.100,36423.000,0.200,2317.000,0.300,1040.000,0.500,1063.000,1.000,354.000,5.000,0
"04/02/08","23:12:49",38214.000,"cc",28322.178,6.00,6,0.100,33385.000,0.200,2177.000,0.300,1139.000,0.500,1117.000,1.000,396.000,5.000,0
"04/02/08","23:12:55",60977.000,"cc",28281.414,6.00,6,0.100,54387.000,0.200,4035.000,0.300,1113.000,0.500,1077.000,1.000,365.000,5.000,0
"04/02/08","23:13:01",49441.000,"cc",28326.324,6.00,6,0.100,44042.000,0.200,3004.000,0.300,1020.000,0.500,1054.000,1.000,321.000,5.000,0
"04/02/08","23:13:07",37871.000,"cc",28288.699,6.00,6,0.100,33236.000,0.200,2073.000,0.300,1085.000,0.500,1107.000,1.000,370.000,5.000,0
"04/02/08","23:13:13",34416.000,"cc",28378.816,6.00,6,0.100,29794.000,0.200,1951.000,0.300,1169.000,0.500,1098.000,1.000,404.000,5.000,0
"04/02/08","23:13:19",46439.000,"cc",28287.065,6.00,6,0.100,40710.000,0.200,2966.000,0.300,1182.000,0.500,1181.000,1.000,400.000,5.000,0
"04/02/08","23:13:25",46716.000,"cc",28327.418,6.00,6,0.100,40971.000,0.200,2915.000,0.300,1186.000,0.500,1229.000,1.000,415.000,5.000,0
"04/02/08","23:13:31",48228.000,"cc",28324.315,6.00,6,0.100,42735.000,0.200,2937.000,0.300,1052.000,0.500,1139.000,1.000,365.000,5.000,0
"04/02/08","23:13:37",69443.000,"cc",28312.123,6.00,6,0.100,61391.000,0.200,4919.000,0.300,1409.000,0.500,1259.000,1.000,465.000,5.000,0
"04/02/08","23:13:43",57948.000,"cc",28396.504,6.00,6,0.100,51160.000,0.200,3789.000,0.300,1311.000,0.500,1283.000,1.000,405.000,5.000,0
"04/02/08","23:13:49",40294.000,"cc",28384.902,6.00,6,0.100,35355.000,0.200,2271.000,0.300,1144.000,0.500,1145.000,1.000,379.000,5.000,0
"04/02/08","23:13:55",41083.000,"cc",28212.754,6.00,6,0.100,36266.000,0.200,2330.000,0.300,1055.000,0.500,1048.000,1.000,384.000,5.000,0
"04/02/08","23:14:01",45911.000,"cc",28359.336,6.00,6,0.100,40113.000,0.200,2855.000,0.300,1288.000,0.500,1231.000,1.000,424.000,5.000,0
"04/02/08","23:14:07",55733.000,"cc",28264.598,6.00,6,0.100,49530.000,0.200,3569.000,0.300,1123.000,0.500,1136.000,1.000,375.000,5.000,0
"04/02/08","23:14:13",75555.000,"cc",28312.006,6.00,6,0.100,66807.000,0.200,5352.000,0.300,1505.000,0.500,1440.000,1.000,451.000,5.000,0
"04/02/08","23:14:19",73443.000,"cc",28340.223,6.00,6,0.100,65910.000,0.200,4998.000,0.300,1098.000,0.500,1082.000,1.000,355.000,5.000,0
"04/02/08","23:14:25",102211.000,"cc",28317.693,6.00,6,0.100,91319.000,0.200,7555.000,0.300,1520.000,0.500,1355.000,1.000,462.000,5.000,0
"04/02/08","23:14:31",94634.000,"cc",28265.525,6.00,6,0.100,83696.000,0.200,7202.000,0.300,1707.000,0.500,1526.000,1.000,503.000,5.000,0
"04/02/08","23:14:37",97497.000,"cc",28277.174,6.00,6,0.100,85595.000,0.200,7778.000,0.300,1985.000,0.500,1605.000,1.000,534.000,5.000,0
"04/02/08","23:14:43",134355.000,"cc",28341.273,6.00,6,0.100,120523.000,0.200,10807.000,0.300,1467.000,0.500,1183.000,1.000,375.000,5.000,0
"04/02/08","23:14:49",141370.000,"cc",28335.092,6.00,6,0.100,126877.000,0.200,11528.000,0.300,1412.000,0.500,1166.000,1.000,387.000,5.000,0
"04/02/08","23:14:55",118570.000,"cc",28290.787,6.00,6,0.100,105064.000,0.200,9650.000,0.300,1906.000,0.500,1479.000,1.000,471.000,5.000,0
"04/02/08","23:15:01",103219.000,"cc",28352.559,6.00,6,0.100,91121.000,0.200,8142.000,0.300,1906.000,0.500,1547.000,1.000,503.000,5.000,0
"04/02/08","23:15:07",84930.000,"cc",28296.719,6.00,6,0.100,74249.000,0.200,6638.000,0.300,1868.000,0.500,1635.000,1.000,540.000,5.000,0
"04/02/08","23:15:13",101420.000,"cc",28339.139,6.00,6,0.100,90136.000,0.200,7680.000,0.300,1627.000,0.500,1460.000,1.000,517.000,5.000,0
"04/02/08","23:15:19",114119.000,"cc",28367.162,6.00,6,0.100,100920.000,0.200,9233.000,0.300,1932.000,0.500,1523.000,1.000,511.000,5.000,0
"04/02/08","23:15:25",59488.000,"cc",28269.072,6.00,6,0.100,52292.000,0.200,4025.000,0.300,1404.000,0.500,1320.000,1.000,447.000,5.000,0
"04/02/08","23:15:31",91307.000,"cc",28331.859,6.00,6,0.100,80891.000,0.200,6908.000,0.300,1661.000,0.500,1360.000,1.000,487.000,5.000,0
"04/02/08","23:15:37",114625.000,"cc",28331.461,6.00,6,0.100,101612.000,0.200,9066.000,0.300,1877.000,0.500,1530.000,1.000,540.000,5.000,0
"04/02/08","23:15:43",122123.000,"cc",28363.906,6.00,6,0.100,108825.000,0.200,9877.000,0.300,1634.000,0.500,1331.000,1.000,456.000,5.000,0
"04/02/08","23:15:49",146746.000,"cc",28278.260,6.00,6,0.100,131417.000,0.200,11721.000,0.300,1763.000,0.500,1379.000,1.000,466.000,5.000,0
"04/02/08","23:15:55",105091.000,"cc",28288.764,6.00,6,0.100,93934.000,0.200,8043.000,0.300,1406.000,0.500,1281.000,1.000,427.000,5.000,0
"04/02/08","23:16:01",135128.000,"cc",28302.904,6.00,6,0.100,120331.000,0.200,11240.000,0.300,1678.000,0.500,1413.000,1.000,466.000,5.000,0
"04/02/08","23:16:07",90759.000,"cc",28308.510,6.00,6,0.100,81223.000,0.200,6620.000,0.300,1301.000,0.500,1221.000,1.000,394.000,5.000,0